User: anonymous   Login
Location: *
(2.5500°S, 65.9667°W)
Time: 16:22:13
(UTC+00:00)
Language:

Cosmos 2016 Rocket - Orbit

View from above orbital plane
View from above orbital plane
View from above satellite
View from above satellite

Ground track
Ground track

The orbit data is extracted from the following two-line orbital elements,

1 19922U 89028B   22023.89883264  .00000014  00000-0 -11180-5 0  9999
2 19922  82.9573 259.1821 0035695 213.5390 146.3507 13.77246002648453
Epoch (UTC): 23 January 2022 21:34:19
Eccentricity: 0.0035695
inclination: 82.9573°
perigee height: 947 km
apogee height: 1000 km
right ascension of ascending node: 259.1821°
argument of perigee: 213.5390°
revolutions per day: 13.77246002
mean anomaly at epoch: 146.3507°
orbit number at epoch: 64845

The dashed part of the orbit path shows where the satellite is in the earth's shadow,  

DLR